Change the Weather History Date:

Monday, April 8, 2013

  Actual Average Record
Temperature  
Mean Temperature 50 °F -  
Max Temperature 55 °F 52 °F 61 °F (2012)
Min Temperature 45 °F 37 °F 32 °F (2001)
Degree Days  
Heating Degree Days 15    
Moisture  
Dew Point 43 °F    
Average Humidity 82    
Maximum Humidity 93    
Minimum Humidity 66    
Precipitation  
Precipitation 0.04 in - - ()
Sea Level Pressure  
Sea Level Pressure 30.11 in    
Wind  
Wind Speed 7 mph (SSW)    
Max Wind Speed 18 mph    
Max Gust Speed 26 mph    
Visibility 10 miles    
Events Rain    
Averages and records for this station are not official NWS values.
T = Trace of Precipitation, MM = Missing Value Source: NWS Daily Summary

Daily Weather History Graph

Daily Weather History Graph

Search for Another Location

Airport or City:

Trip Planner

Search our weather history database for the weather conditions in past years. The results will help you decide how hot, cold, wet, or windy it might be!

Date:

Astronomy

Apr. 08, 2013 Rise Set
Actual Time 6:33 AM PDT 7:51 PM PDT
Civil Twilight 6:01 AM PDT 8:24 PM PDT
Nautical Twilight 5:22 AM PDT 9:03 PM PDT
Astronomical Twilight 4:40 AM PDT 9:45 PM PDT
Moon 5:33 AM PDT (4/8) 6:27 PM PDT (4/8)
Length of Visible Light 14h 22m
Length of Day
13h 18m
Waning Crescent, 3% of the Moon is Illuminated
Apr 8
Waning Crescent
Apr 10
New
Apr 18
First Quarter
Apr 25
Full
May 2
Last Quarter

Hourly Weather History & Observations

Time (PDT) Temp. Windchill Dew Point Humidity Pressure Visibility Wind Dir Wind Speed Gust Speed Precip Events Conditions
12:28 AM 46.4 °F 39.5 °F 41.0 °F 81% 29.88 in 10.0 mi West 17.3 mph - 0.00 in Rain Light Rain
12:56 AM 46.0 °F 38.8 °F 41.0 °F 83% 29.91 in 10.0 mi West 18.4 mph 26.5 mph 0.00 in Rain Light Rain
1:56 AM 46.0 °F 41.0 °F 42.1 °F 86% 29.94 in 10.0 mi WSW 10.4 mph - 0.04 in   Overcast
2:56 AM 46.0 °F 43.1 °F 42.1 °F 86% 29.94 in 10.0 mi West 5.8 mph - N/A   Overcast
3:56 AM 46.0 °F 44.8 °F 42.1 °F 86% 29.96 in 10.0 mi SSW 3.5 mph - N/A   Overcast
4:56 AM 46.0 °F 43.1 °F 42.1 °F 86% 29.98 in 10.0 mi SSE 5.8 mph - N/A   Overcast
5:56 AM 46.0 °F 44.8 °F 43.0 °F 89% 30.02 in 10.0 mi SSW 3.5 mph - N/A   Overcast
6:56 AM 46.0 °F - 42.1 °F 86% 30.04 in 10.0 mi Calm Calm - N/A   Overcast
7:34 AM 46.4 °F 45.2 °F 42.8 °F 87% 30.04 in 10.0 mi SSE 3.5 mph - N/A   Mostly Cloudy
7:56 AM 46.0 °F - 44.1 °F 93% 30.06 in 10.0 mi Calm Calm - N/A   Overcast
8:20 AM 46.4 °F 45.2 °F 44.6 °F 93% 30.06 in 9.0 mi ESE 3.5 mph - N/A   Overcast
8:56 AM 48.0 °F - 44.1 °F 86% 30.08 in 9.0 mi East 4.6 mph - N/A   Overcast
9:56 AM 48.0 °F - 44.1 °F 86% 30.10 in 9.0 mi Calm Calm - N/A   Overcast
10:56 AM 48.0 °F - 44.1 °F 86% 30.12 in 9.0 mi ESE 6.9 mph - N/A   Overcast
11:56 AM 48.0 °F - 43.0 °F 83% 30.15 in 10.0 mi WSW 5.8 mph - N/A   Overcast
12:24 PM 48.2 °F - 42.8 °F 82% 30.14 in 10.0 mi West 3.5 mph - N/A   Overcast
12:56 PM 52.0 °F - 45.0 °F 77% 30.16 in 10.0 mi East 3.5 mph - N/A   Overcast
1:03 PM 51.8 °F - 44.6 °F 76% 30.15 in 10.0 mi Calm Calm - N/A   Overcast
1:18 PM 50.0 °F - 44.6 °F 82% 30.15 in 10.0 mi WNW 6.9 mph - N/A   Overcast
1:56 PM 51.1 °F - 43.0 °F 74% 30.18 in 10.0 mi Calm Calm - N/A   Overcast
2:56 PM 52.0 °F - 44.1 °F 74% 30.18 in 10.0 mi West 4.6 mph - N/A   Mostly Cloudy
3:56 PM 54.0 °F - 44.1 °F 69% 30.19 in 10.0 mi Calm Calm - N/A   Mostly Cloudy
4:56 PM 53.1 °F - 42.1 °F 66% 30.19 in 10.0 mi SSE 5.8 mph - N/A   Mostly Cloudy
5:56 PM 51.1 °F - 43.0 °F 74% 30.21 in 10.0 mi West 4.6 mph - N/A   Mostly Cloudy
6:56 PM 50.0 °F - 41.0 °F 71% 30.22 in 10.0 mi Calm Calm - N/A   Mostly Cloudy
7:56 PM 48.0 °F - 43.0 °F 83% 30.22 in 10.0 mi ESE 3.5 mph - N/A   Mostly Cloudy
8:56 PM 46.0 °F 43.9 °F 42.1 °F 86% 30.25 in 10.0 mi ESE 4.6 mph - N/A   Overcast
9:56 PM 48.0 °F - 42.1 °F 80% 30.27 in 10.0 mi SSW 5.8 mph - N/A   Mostly Cloudy
10:56 PM 46.0 °F - 41.0 °F 83% 30.28 in 10.0 mi Calm Calm - N/A   Mostly Cloudy
11:56 PM 45.0 °F - 42.1 °F 90% 30.28 in 10.0 mi Calm Calm - N/A   Overcast